Location: Chenango Forks
(42.2242°N, 75.8278°W)
Time: 05:30:08
(UTC-04:00)

Daily predictions for brighter satellites

Satellite Brightness Start Highest point End
(mag) Time Altitude Azimuth Time Altitude Azimuth Time Altitude Azimuth
BREEZE-M DEB (TANK) 3.5 00:02:24 31° WSW 00:04:10 83° NNW 00:14:08 10° ENE
Cosmos 1689 Rocket 4.1 00:08:06 26° NE 00:08:06 26° NE 00:10:20 10° N
Cosmos 1733 Rocket 3.2 00:09:51 58° E 00:09:51 58° E 00:14:11 10° NNE
Meteor 2-3 Rocket 3.7 00:08:52 48° SSW 00:10:34 80° W 00:16:18 10° N
Cosmos 2184 Rocket 3.9 00:10:24 46° SSW 00:12:26 83° W 00:18:39 10° N
COS B Rocket 4.4 00:08:43 10° NNW 00:12:27 38° W 00:13:01 36° WSW
Cosmos 2263 Rocket 3.5 00:13:17 25° E 00:13:17 25° E 00:17:44 10° NE
USA 238 DEB 3.7 00:09:19 10° NW 00:16:20 74° WSW 00:18:30 47° SSE
USA 238 3.7 00:09:25 10° NW 00:16:27 74° WSW 00:18:37 47° SSE
Aureole 2 Rocket 3.7 00:13:21 10° NNW 00:15:36 35° WNW 00:15:36 35° WNW
CZ-4C R/B 3.1 00:09:37 10° NNW 00:16:39 67° NE 00:20:27 32° SE
CZ-4C R/B 3.6 00:20:14 56° N 00:20:14 56° N 00:23:13 10° N
FALCON 9 R/B 3.4 00:04:42 10° W 00:19:54 41° SSW 00:20:47 39° SSW
Okean 1-7 4.3 00:21:38 10° NNW 00:25:20 30° W 00:25:40 29° W
Sich 1 Rocket 4.0 00:25:49 50° E 00:25:49 50° E 00:30:04 10° NNE
Cosmos 1238 Rocket 4.1 00:23:29 10° NNE 00:26:04 27° NE 00:26:04 27° NE
Meteor 1-10 Rocket 4.3 00:20:50 10° N 00:26:50 80° E 00:28:10 56° SSE
CZ-2C R/B 3.7 00:26:43 10° NE 00:31:13 29° E 00:31:22 29° E
SL-16 R/B 3.7 00:27:07 10° NW 00:31:27 23° W 00:32:32 22° WSW
ALOS 2 2.5 00:34:30 89° WNW 00:34:30 89° WNW 00:38:54 10° NNW
Coronas F rocket 4.1 00:37:09 20° N 00:37:09 20° N 00:38:08 10° N
Cosmos 2341 Rocket 4.1 00:37:40 50° SSE 00:39:09 65° E 00:45:28 10° NNE
SeaSat 1 2.4 00:40:22 65° SW 00:40:39 66° WSW 00:45:35 10° NNW
Cosmos 1356 Rocket 3.6 00:43:11 67° NW 00:43:11 67° NW 00:46:56 10° N
ASTEX 1 3.3 00:38:14 10° N 00:43:08 75° W 00:43:37 68° SW
Lacrosse 4 Rocket 4.1 00:44:29 10° W 00:45:16 11° W 00:45:16 11° W
Cosmos 2251 Rocket 4.1 00:40:49 10° NNW 00:45:47 42° WSW 00:46:13 41° WSW
Cosmos 921 Rocket 3.1 00:48:52 68° NW 00:48:52 68° NW 00:52:54 10° NNE
NOSS 3-2 (C) 4.1 00:42:30 10° NNW 00:50:00 74° NE 00:54:03 32° SE
Cosmos 494 Rocket 4.2 00:45:01 10° NNW 00:50:10 56° WSW 00:50:33 55° WSW
Cosmos 1782 Rocket 4.3 00:51:04 41° E 00:51:04 41° E 00:54:54 10° NNE
Cosmos 1943 3.1 00:46:28 10° NNW 00:52:12 86° ENE 00:53:12 62° SSE
Cosmos 1782 3.4 00:50:50 10° NNW 00:54:10 52° WNW 00:54:10 52° WNW
Okean 2 Rocket 3.8 00:58:49 43° E 00:58:49 43° E 01:02:55 10° NNE
Cosmos 1674 Rocket 4.1 00:54:54 10° NNW 00:59:03 50° W 00:59:03 50° W
Cosmos 1340 Rocket 4.2 00:59:32 30° WNW 00:59:32 30° WNW 01:03:01 10° N
Cosmos 1607 4.1 00:56:28 10° NW 01:02:23 50° WSW 01:02:59 48° SW
CZ-4B R/B 3.1 01:03:41 30° NW 01:03:41 30° NW 01:05:45 10° NNW
Cosmos 1606 3.3 01:05:12 10° NNW 01:08:20 54° NW 01:08:20 54° NW
Cosmos 1408 3.3 01:11:03 52° NNE 01:11:03 52° NNE 01:14:01 10° N
NOSS 3-2 (A) 3.9 01:03:30 10° NW 01:11:00 76° WSW 01:13:47 45° SSE
Cosmos 1975 Rocket 3.1 01:07:37 10° N 01:11:51 68° ENE 01:11:51 68° ENE
NOSS 3-4 (A) 3.5 01:10:42 49° SW 01:12:39 87° NW 01:19:16 10° NE
NOSS 3-4 (C) 3.5 01:10:50 49° SW 01:12:44 88° WNW 01:19:22 10° NE
Cosmos 1867 3.5 01:07:44 10° NNW 01:13:15 89° ENE 01:14:04 66° SE
Nadezhda 3 Rocket 4.3 01:09:03 10° NNW 01:15:05 53° W 01:16:28 45° SW
Okean 3 3.5 01:13:07 10° N 01:17:11 78° NNW 01:17:11 78° NNW
Meteor 1-27 Rocket 3.8 01:13:11 10° NNW 01:18:56 64° W 01:19:48 56° SW
Cosmos 1908 Rocket 3.9 01:19:27 53° WNW 01:19:27 53° WNW 01:23:38 10° N
Landsat 5 4.5 01:20:20 39° W 01:20:20 39° W 01:24:19 10° NNW
CZ-2C R/B 3.4 01:22:43 50° SE 01:24:08 68° ENE 01:29:39 10° N
H-2A R/B 4.0 01:24:09 10° N 01:27:48 27° WNW 01:28:27 26° W
GEOS 3 Rocket 3.9 01:30:20 49° WSW 01:30:20 49° WSW 01:35:14 10° NW
RESURS DK-1 2.5 01:31:17 71° NNE 01:31:17 71° NNE 01:35:01 10° NNE
Cosmos 1727 Rocket 4.2 01:25:00 10° N 01:31:10 62° E 01:33:04 43° SE
Helios 1A Rocket 3.7 01:27:43 10° N 01:31:41 43° WNW 01:31:44 43° WNW
Meteor 1-14 Rocket 4.5 01:35:33 51° SSE 01:36:49 63° E 01:42:37 10° NNE
Cosmos 1242 Rocket 3.5 01:35:50 10° N 01:38:35 43° NE 01:38:35 43° NE
BREEZE-M DEB (TANK) 4.4 01:37:11 10° WNW 01:40:01 35° N 01:47:23 10° ENE
Cosmos 1825 3.2 01:41:16 39° NW 01:41:16 39° NW 01:44:22 10° N
Cosmos 1862 4.4 01:42:05 35° WNW 01:42:05 35° WNW 01:45:34 10° N
Abrixas rocket 3.7 01:45:32 38° NNE 01:45:32 38° NNE 01:48:04 10° NE
Cosmos 1190 Rocket 4.2 01:40:31 10° NNW 01:45:44 65° ENE 01:47:00 48° SE
Cosmos 1844 Rocket 3.5 01:51:26 34° SE 01:52:26 36° ESE 01:57:35 10° NE
Cosmos 2263 Rocket 2.8 01:54:57 36° WSW 01:56:46 48° WNW 02:02:16 10° NNE
Cosmos 407 Rocket 3.7 01:52:18 10° NNW 01:57:28 67° ENE 01:58:57 45° SE
Cosmos 1371 Rocket 4.2 01:56:39 52° WSW 01:57:43 64° WNW 02:03:03 10° NNE
Okean 1 Rocket 4.4 01:57:08 27° ESE 01:57:53 29° E 02:01:43 10° NNE
Cosmos 2151 Rocket 3.4 01:58:10 81° SE 01:58:19 84° E 02:02:50 10° N
Cosmos 2056 Rocket 3.4 01:57:32 63° SSW 01:58:24 84° WNW 02:03:39 10° NNE
Meteor 1-18 Rocket 4.4 01:53:26 10° N 01:59:07 67° E 02:01:00 42° SE
Cosmos 1812 3.8 01:55:49 10° N 01:59:28 37° ENE 01:59:47 37° E
CZ-4C R/B 3.8 01:58:49 10° NW 02:04:57 30° WSW 02:05:36 30° WSW
PSLV R/B 4.4 02:07:10 50° WNW 02:07:10 50° WNW 02:10:40 10° NNW
PSLV R/B 3.9 02:03:13 10° NNE 02:07:20 51° E 02:07:33 51° ESE
Gbstr 26 Del rocket 3.2 02:09:14 52° E 02:09:14 52° E 02:12:21 10° ENE
ATLAS 5 CENTAUR R/B 3.9 02:03:37 10° NNW 02:08:56 34° NE 02:14:36 10° ESE
Meteor 2-19 Rocket 4.4 02:07:43 50° S 02:09:31 89° W 02:15:43 10° N
Cosmos 676 Rocket 4.2 02:05:09 10° NNW 02:10:20 65° ENE 02:12:11 38° SE
CZ-2C R/B 3.6 02:06:50 10° N 02:11:30 35° WNW 02:12:53 30° W
Iridium 4 Rocket 3.4 02:08:21 10° N 02:13:14 86° E 02:14:19 57° S
SL-27 R/B 2.8 02:17:22 10° NNW 02:20:35 66° NNW 02:20:35 66° NNW
CENTAUR R/B 3.1 02:13:47 10° NW 02:21:38 79° NE 02:29:57 10° SE
USA 234 4.0 02:15:43 10° ESE 02:22:01 54° NNE 02:28:20 10° NW
Cosmos 2278 Rocket 3.3 02:22:42 26° SE 02:24:34 33° ESE 02:29:35 10° NE
GP-B 3.6 02:27:38 10° NNE 02:31:59 52° E 02:33:12 39° SE
Cosmos 1821 Rocket 4.3 02:29:35 33° SSE 02:32:27 64° E 02:38:46 10° NNE
COSMOS 2406 3.3 02:28:07 10° NNW 02:33:46 58° WSW 02:35:08 46° SSW
CRYOSAT 2 4.4 02:28:59 10° N 02:33:47 64° W 02:34:44 52° SW
Cosmos 1954 Rocket 3.9 02:29:23 10° NNW 02:34:34 82° ENE 02:36:39 37° SSE
Cosmos 2082 Rocket 4.4 02:37:38 10° N 02:42:13 24° NE 02:46:47 10° ESE
Cosmos 724 4.5 02:37:05 10° NW 02:43:03 55° WSW 02:45:03 39° S
SL-16 R/B 4.2 02:40:44 10° ESE 02:46:02 30° ENE 02:51:18 10° N
Okean 1 3.2 02:42:06 10° NNW 02:46:05 66° W 02:46:19 64° WSW
Cosmos 1300 Rocket 3.5 02:45:47 58° SW 02:46:30 72° W 02:50:53 10° N
NOSS 8 (A) 4.5 02:47:45 70° SE 02:47:49 70° ESE 02:51:31 10° NE
Landsat 4 3.6 02:48:07 68° WSW 02:48:15 69° WSW 02:52:04 10° NNW
NPP 3.7 02:46:25 10° NNE 02:51:50 76° ESE 02:54:01 37° S
Cosmos 1602 4.0 02:52:37 48° SE 02:53:23 60° E 02:57:12 10° NNE
Cosmos 1023 Rocket 4.4 02:48:42 10° NNW 02:53:49 80° ENE 02:56:41 26° SSE
Cosmos 1461 3.1 02:57:25 47° SSW 02:58:42 76° ESE 03:03:19 10° NE
Meteor 2-4 Rocket 4.3 02:56:56 10° N 03:02:11 51° ENE 03:06:44 13° SSE
CZ-2D R/B 3.9 02:58:35 10° NE 03:03:04 25° E 03:07:33 10° SSE
Cosmos 1452 Rocket 3.9 03:02:08 34° WSW 03:04:02 51° WNW 03:09:11 10° N
ARIANE 5 R/B 3.8 02:59:54 10° NNE 03:04:24 32° E 03:07:41 16° SSE
Cosmos 1892 Rocket 4.3 03:04:58 10° N 03:09:12 50° E 03:12:09 19° SSE
USA 161 3.0 03:08:36 25° ESE 03:09:43 34° ENE 03:12:29 10° N
ERS-2 2.1 03:06:08 10° NNE 03:09:52 87° ESE 03:10:43 52° S
NOSS 2-2 (D) 3.6 03:08:41 43° SW 03:10:01 76° NW 03:14:52 10° NNE
Cosmos 1420 Rocket 4.0 03:09:02 36° SSW 03:11:16 85° WNW 03:16:35 10° NNE
CBERS-1 4.0 03:10:35 10° N 03:15:44 79° WNW 03:18:07 33° SSW
Cosmos 1140 Rocket 3.4 03:11:00 10° NNW 03:16:05 65° WSW 03:18:40 29° S
SL-08 R/B 3.4 03:14:08 34° SSW 03:16:07 61° W 03:20:57 10° NNW
Cosmos 1833 Rocket 4.4 03:13:05 10° N 03:18:10 34° ENE 03:23:13 10° ESE
Cosmos 1315 Rocket 4.2 03:16:08 19° SSE 03:18:30 34° E 03:22:10 10° NNE
IRS-1C 4.1 03:14:33 10° NNE 03:19:56 89° W 03:22:45 29° SSW
Cosmos 1356 3.7 03:19:30 38° SSE 03:20:38 63° E 03:24:10 10° NNE
Abrixas rocket 4.4 03:19:27 10° WNW 03:22:24 27° N 03:25:19 10° ENE
NOSS 2-2 (C) 4.0 03:22:45 31° WSW 03:24:32 55° NW 03:29:21 10° NNE
AQUA 4.0 03:21:58 10° N 03:26:40 60° WNW 03:28:48 31° SW
Resurs 1-4 Rocket 2.9 03:28:43 10° NNE 03:33:51 47° E 03:38:15 14° S
Cosmos 1934 Rocket 4.3 03:31:35 26° SW 03:34:56 51° WNW 03:40:54 10° N
Okean 1 Rocket 4.5 03:34:20 21° WSW 03:35:45 25° WNW 03:39:28 10° NNW
Cosmos 1844 Rocket 3.7 03:33:05 20° WSW 03:36:19 34° WNW 03:41:28 10° N
ADEOS 3.6 03:32:03 10° N 03:37:17 74° WNW 03:40:24 25° SSW
Meteor 2-15 Rocket 4.5 03:32:26 10° NNW 03:38:33 67° W 03:43:11 18° S
COSMOS 2487 3.3 03:36:06 10° NW 03:39:21 32° WSW 03:39:42 31° WSW
Cosmos 1025 Rocket 3.5 03:40:14 10° NNW 03:44:17 41° W 03:46:07 27° SW
Cosmos 1447 Rocket 4.4 03:38:11 10° N 03:44:22 86° W 03:50:24 11° S
Cosmos 1850 Rocket 4.3 03:39:40 10° NNW 03:44:41 47° WSW 03:48:07 19° S
Cosmos 1536 3.4 03:44:16 28° SW 03:45:54 44° WNW 03:49:49 10° N
Cosmos 1633 3.0 03:45:55 31° SW 03:47:12 45° W 03:50:44 10° N
Cosmos 1741 Rocket 4.4 03:43:57 10° NNW 03:48:57 45° WSW 03:52:25 19° SSW
ATLAS 5 CENTAUR R/B 2.5 03:48:04 10° NW 03:53:56 54° WSW 04:00:12 10° SSE
Okean 2 3.4 03:50:15 10° NNW 03:54:20 64° W 03:57:15 18° S
Cosmos 1626 Rocket 4.2 03:51:04 10° N 03:55:24 57° E 03:59:44 10° SSE
Gbstr 26 Del rocket 4.3 03:52:04 10° W 03:55:34 29° NNW 03:58:54 10° NE
EO 1 Del DPAF 3.2 03:51:57 11° SSE 03:55:39 89° ENE 03:59:33 10° NNW
Cosmos 1455 Rocket 3.0 03:53:30 21° SSW 03:56:27 75° W 04:00:54 10° N
UNK 3.3 03:53:11 16° WSW 03:59:32 86° SSE 04:02:28 10° ENE
Spot 4 Rocket 4.3 03:54:35 10° N 03:59:36 54° WNW 04:03:09 19° SW
Okean O Rocket 3.2 03:55:55 10° NE 03:59:45 30° E 04:03:36 10° SSE
Timation 2 Rocket 4.0 03:56:21 10° NW 04:02:16 52° WSW 04:08:01 10° S
USA 234 3.4 03:58:44 10° SSE 04:05:02 50° SW 04:11:22 10° WNW
Cosmos 2278 Rocket 3.1 04:04:33 16° WSW 04:08:33 37° WNW 04:13:50 10° N
Cosmos 2061 Rocket 4.1 04:04:00 10° S 04:10:21 86° E 04:16:48 10° N
CENTAUR R/B 4.0 04:05:33 10° WNW 04:11:47 26° WSW 04:18:10 10° SSW
Cosmos 2297 3.8 04:07:43 17° SW 04:12:03 66° WNW 04:17:45 10° NNE
UNK 3.8 04:08:06 10° S 04:12:40 62° W 04:17:18 10° NNW
MTI 3.8 04:10:28 10° SSE 04:13:46 90° WSW 04:17:04 10° NNW
IRS-1D 3.7 04:13:36 10° N 04:18:33 55° WNW 04:22:44 14° SSW
BREEZE-M TANK 3.2 04:19:22 18° SW 04:19:59 19° SSW 04:22:43 10° SSE
Cosmos 1400 Rocket 4.3 04:21:16 14° WSW 04:23:31 22° WNW 04:26:41 10° NNW
APEX 3.3 04:21:44 18° SW 04:23:45 45° WNW 04:27:15 10° NNE
Cosmos 2082 Rocket 2.3 04:21:05 10° NNW 04:26:41 57° WSW 04:32:14 10° S
Cosmos 2016 Rocket 4.1 04:20:27 10° S 04:26:44 84° E 04:33:00 10° N
CZ-4B R/B 4.0 04:22:34 10° NNE 04:28:08 53° E 04:33:36 10° S
SL-16 R/B 2.9 04:23:26 10° S 04:29:24 47° W 04:35:22 10° NNW
Cosmos 1174 4.2 04:29:16 10° NW 04:32:17 27° WSW 04:34:57 10° S
Cosmos 1486 Rocket 4.0 04:33:05 10° NNW 04:38:25 72° WSW 04:43:43 10° S
SME Rocket 3.8 04:35:53 10° SSW 04:39:16 31° W 04:43:10 10° NNW
ERBS 4.2 04:37:36 10° NNW 04:40:50 35° NE 04:44:01 10° ESE
CZ-2D R/B 2.7 04:38:08 10° N 04:43:18 44° WNW 04:48:27 10° SW
ARIANE 5 R/B 3.6 04:39:07 10° N 04:43:26 30° WNW 04:47:46 10° SW
Cosmos 1725 Rocket 4.2 04:37:16 10° S 04:43:32 76° E 04:49:46 10° N
Cosmos 1515 3.7 04:41:07 10° NNW 04:44:56 70° W 04:48:44 10° S
Cosmos 1500 3.2 04:41:42 10° S 04:45:35 85° W 04:49:30 10° N
MOZ.5/SAFIR/RUBIN 5/SL-8 3.9 04:41:08 10° SSE 04:45:54 85° ENE 04:50:43 10° NNW
Cosmos 1743 3.5 04:42:32 10° S 04:46:15 52° E 04:49:58 10° NNE
CZ-2D R/B 3.6 04:42:48 10° N 04:46:45 58° WNW 04:50:46 10° SSW
Cosmos 2173 Rocket 4.4 04:45:07 10° SSW 04:50:57 46° WNW 04:56:55 10° N
USA 229 DEB 4.0 04:44:00 10° NW 04:51:09 84° NE 04:58:21 10° SE
USA 229 4.0 04:44:05 10° NW 04:51:15 83° NE 04:58:27 10° SE
Cosmos 1346 Rocket 3.2 04:51:41 10° NNW 04:55:34 45° W 04:59:23 10° SSW
Cosmos 1066 Rocket 4.1 04:51:55 10° NNW 04:57:24 76° W 05:02:44 10° S
Cosmos 2098 Rocket 3.2 04:53:55 10° S 04:57:39 77° E 05:02:28 10° N
Abrixas rocket 3.5 04:56:44 10° NW 04:59:59 45° NNE 05:03:13 10° E
Cosmos 1833 Rocket 3.3 04:57:00 10° NW 05:02:05 36° WSW 05:07:09 10° S
Cosmos 2285 Rocket 4.1 04:56:19 10° SSW 05:02:35 73° WNW 05:08:56 10° NNE
BREEZE-M DEB (TANK) 4.3 04:56:59 10° SSW 05:02:49 30° SSE 05:05:25 10° E
